SKU weather

Skiros Airport
Skiros Island, Euboea, Greece

Public forecast

Using degrees Celsius for public forecast. Weather courtesy of forecast.io.

METAR (pilot weather report)

Report is more than 6 hours old.

Retrieved 2018/09/20 13:50 UTC (3 days ago):

LGSY 201350Z 34015KT 9999 FEW020 24/15 Q1017 BLU

TAF (pilot weather forecast)

Forecast is more than 12 hours old.

Closest forecast is Skiathos Island National Airport, 47.5 nm (88.0 km) WNW. Retrieved 2012/09/27 00:18 UTC (6 years ago):

TAF LGSK 272300Z 2800/2909 01010KT 9999 FEW020